Theta_e
308 301 297 300 302 301 299 297 296 299 303 302 302 302 304 307 308 308 310 312 314 316 320 322 322 324 327 329 330 330 331 331 331 329 327 327 326 329 330 331 331 328 327 327
302 296 302 303 303 300 300 297 296 299 302 302 301 299 303 305 306 308 308 309 310 312 315 318 321 321 323 326 329 329 330 331 332 332 330 329 328 329 329 330 330 330 328 327
297 298 303 301 300 297 297 296 296 296 301 303 300 297 300 304 307 308 309 310 311 311 312 313 316 320 321 323 328 328 330 332 332 332 332 330 330 328 326 326 328 329 330 329
299 302 300 299 298 299 293 300 298 297 295 290 299 289 298 302 303 305 307 309 310 311 313 315 316 317 319 324 327 329 329 330 332 333 332 330 327 324 326 326 327 328 330 329
296 297 297 297 298 301 297 301 299 297 294 293 294 290 294 300 299 302 305 307 309 312 313 312 314 317 318 323 325 327 328 329 330 332 332 331 329 329 329 328 327 327 328 329
298 302 301 300 301 302 301 296 295 295 293 285 291 291 291 295 297 300 304 306 307 308 310 312 314 316 317 321 323 324 322 324 329 330 332 331 330 329 328 328 327 327 327 328
293 295 301 301 296 300 298 293 284 283 282 283 291 289 292 297 299 300 301 304 306 309 309 311 311 311 312 316 318 318 318 318 321 326 330 331 331 331 329 329 328 328 328 328
286 283 295 300 297 293 295 293 286 278 280 283 290 285 291 300 303 303 304 305 307 308 308 308 307 308 309 310 312 312 312 312 315 318 322 330 331 331 331 331 330 330 329 329
287 288 298 299 300 298 293 289 296 287 284 283 288 291 296 300 299 301 301 302 303 306 305 306 306 306 306 308 310 311 310 311 312 313 316 321 328 330 330 330 331 331 331 330
294 286 293 296 297 299 296 298 286 288 279 278 283 286 287 293 295 298 299 301 303 303 304 305 306 306 307 308 309 309 310 309 310 311 313 314 320 325 329 330 329 330 331 331
296 292 287 291 289 291 290 291 292 291 288 281 280 284 295 295 296 296 298 301 302 303 304 304 304 305 307 308 308 308 309 310 310 310 312 314 315 319 324 326 328 329 330 330
293 290 284 287 290 294 296 292 293 285 283 287 285 285 297 297 297 298 299 300 301 303 303 302 302 304 305 305 306 308 309 310 310 310 310 311 313 316 319 322 325 328 328 329
292 286 280 281 286 290 290 292 293 292 291 285 282 284 296 296 296 298 298 299 300 301 300 301 301 301 303 305 306 307 308 308 309 310 309 309 311 314 317 320 322 324 326 327
295 287 286 282 286 289 285 290 292 291 285 285 285 287 291 294 295 297 298 299 299 300 299 298 300 301 303 304 304 305 306 308 308 309 308 307 309 312 314 318 320 322 324 324
291 284 287 289 287 288 287 288 290 288 290 285 288 288 291 294 295 296 298 298 298 297 297 297 298 299 300 302 304 305 306 307 307 306 307 307 308 309 312 314 318 321 322 322
292 285 287 284 286 286 284 287 289 289 290 290 290 289 296 297 297 296 297 298 296 296 296 298 296 298 299 301 302 303 303 305 305 304 304 305 306 306 308 311 315 318 319 320
288 285 283 281 285 284 279 283 285 288 291 290 286 291 296 295 295 296 297 297 296 296 296 297 295 297 300 301 301 301 302 303 303 302 303 303 304 303 305 308 312 314 315 316
287 286 285 280 281 274 285 291 290 288 289 291 292 293 294 295 297 299 300 298 296 296 296 296 295 297 301 301 300 301 302 300 300 299 300 300 299 300 301 304 306 310 312 312
291 287 280 278 277 282 284 286 284 284 286 292 291 293 295 296 297 296 299 299 299 298 298 297 298 298 301 299 300 299 298 297 296 296 298 298 298 297 297 297 299 301 305 304
289 290 284 277 276 274 283 288 289 290 280 291 293 292 293 294 288 292 297 296 297 299 299 296 298 299 300 299 298 296 295 295 295 295 296 296 296 295 295 295 296 294 294 295
282 282 280 279 278 282 287 286 290 278 282 290 292 294 294 291 294 297 299 298 299 298 296 296 297 296 298 296 296 294 294 293 295 294 294 293 293 292 293 292 293 291 290 289
281 280 279 281 277 275 287 286 283 288 291 292 291 292 292 294 295 295 295 297 295 294 294 295 294 293 295 294 294 293 293 294 293 292 291 290 290 290 290 290 291 288 288 288
281 285 283 283 283 289 289 291 291 293 293 293 293 296 295 294 295 296 295 295 294 293 291 291 292 292 293 292 292 291 292 292 291 289 288 289 289 289 289 288 288 288 287 290
285 289 283 284 287 287 288 290 292 292 292 293 293 293 293 291 293 292 291 290 290 290 290 290 290 290 290 290 290 290 290 290 287 287 287 288 288 289 289 289 289 288 288 289
287 286 284 284 287 289 290 291 292 292 292 290 291 291 291 291 290 290 289 288 289 289 288 289 289 289 289 290 289 289 288 288 286 286 287 288 288 288 289 289 290 289 290 291
287 285 283 283 289 288 290 291 292 291 290 289 288 288 288 288 287 288 287 288 288 287 288 288 288 288 288 288 288 288 287 286 285 285 286 288 289 289 289 289 288 289 290 290
Wind_Speed
14 12 19 19 18 17 15 14 15 14 15 8 18 20 19 20 20 20 20 19 18 18 16 14 13 13 14 14 15 17 17 18 13 12 12 12 12 11 11 11 15 15 13 15
11 21 17 15 17 17 19 13 14 10 6 7 16 22 19 18 21 20 21 20 19 19 18 17 15 14 15 17 17 18 18 17 15 12 11 11 11 11 11 11 13 15 16 16
21 8 19 19 16 19 19 18 15 14 6 11 18 27 23 21 26 24 22 21 20 20 20 19 17 16 16 16 16 17 18 19 18 18 11 11 10 10 11 12 12 15 18 18
21 22 19 21 22 19 19 13 11 10 5 10 2 16 19 13 17 19 13 13 16 19 18 17 17 16 16 13 12 15 15 17 17 18 15 19 15 15 14 12 12 13 18 18
14 20 20 19 21 19 17 14 11 12 14 10 20 15 7 19 20 18 14 14 14 14 14 14 12 10 10 8 9 10 14 15 17 18 19 16 18 13 12 12 15 17 16 19
15 2 17 21 16 18 9 6 2 4 9 11 18 16 14 15 19 15 14 12 13 11 9 7 9 8 8 7 8 8 12 14 15 16 19 21 21 19 14 15 13 13 13 14
3 8 7 7 16 12 14 11 4 6 7 12 9 15 21 11 12 11 8 9 8 6 7 6 9 10 10 7 7 7 9 12 13 14 17 20 22 21 21 18 14 15 13 14
13 8 19 16 16 12 22 16 8 9 11 10 8 12 11 4 3 7 7 7 6 5 5 5 8 6 5 4 8 7 6 9 10 12 15 17 20 15 16 18 15 14 14 15
17 14 16 17 15 18 16 21 19 3 2 3 8 13 15 16 18 16 17 13 9 5 8 5 4 5 5 7 8 8 8 9 10 11 11 14 16 20 18 20 18 15 16 15
13 12 8 8 2 17 14 15 6 5 9 10 11 16 12 5 5 7 1 6 5 4 3 5 6 9 9 9 9 9 9 11 13 12 11 11 14 17 18 17 20 19 18 18
9 11 9 7 8 13 6 15 11 6 11 9 8 8 12 14 10 8 8 5 3 1 4 8 11 11 10 8 9 10 11 11 11 11 12 12 13 15 16 17 18 20 19 19
6 5 8 6 1 2 20 17 18 8 10 10 13 14 19 15 10 5 7 3 3 5 9 13 13 11 10 11 11 12 12 12 11 11 13 13 13 14 15 17 18 19 20 19
15 8 7 3 3 6 7 16 19 20 13 11 10 10 15 3 6 11 6 3 7 11 14 13 11 11 11 11 11 12 12 13 13 12 12 13 13 13 15 17 18 18 19 20
12 4 15 16 15 12 12 19 23 20 12 17 17 20 26 22 13 11 14 5 5 11 13 12 11 10 10 10 12 12 12 12 14 14 12 13 13 14 15 15 17 17 18 19
12 8 13 13 6 9 13 20 23 24 23 21 25 26 29 31 13 13 7 5 12 13 10 11 10 11 12 11 11 12 13 14 13 15 14 14 14 14 15 16 16 16 17 16
9 1 9 7 4 6 9 11 20 25 29 28 26 24 28 30 17 16 13 15 12 10 11 7 10 12 12 12 13 13 14 14 15 16 15 15 15 15 14 15 15 15 15 15
14 8 8 7 11 4 8 26 20 22 25 27 25 33 28 31 21 15 12 14 14 10 12 8 11 11 10 11 13 14 14 15 15 16 16 15 15 15 14 12 15 14 14 13
9 10 2 4 8 13 10 8 19 25 24 22 25 29 31 25 20 15 16 12 12 13 13 8 8 11 9 11 12 13 13 13 14 15 15 14 12 13 14 12 12 14 12 13
9 9 5 6 10 14 24 6 9 12 23 28 29 28 31 28 18 24 17 16 17 13 8 7 6 10 10 12 13 13 13 12 12 14 15 15 13 13 12 13 14 13 14 11
7 10 8 4 8 14 7 12 18 11 23 14 24 32 27 17 13 18 11 11 10 8 6 6 9 9 9 10 11 11 13 13 14 15 16 16 14 13 14 13 14 9 8 9
7 5 13 10 10 8 3 5 14 9 5 2 13 20 19 16 16 10 5 5 6 4 7 10 10 9 10 7 8 12 12 13 14 14 15 16 14 14 15 14 11 9 8 6
12 12 9 8 10 21 6 10 16 8 2 2 3 7 9 11 10 7 10 8 7 9 10 9 9 9 8 7 8 15 13 13 12 14 15 16 14 11 13 13 11 8 7 7
10 10 9 14 7 3 14 5 16 3 2 3 2 2 3 6 7 9 10 11 8 9 8 7 9 13 9 9 9 15 15 11 12 14 16 15 14 12 12 12 10 6 6 7
8 9 5 4 11 10 7 12 10 9 12 6 7 7 9 13 10 8 7 8 8 7 7 6 10 13 15 10 9 12 15 11 11 14 16 15 13 13 10 9 8 8 7 7
7 14 7 12 10 8 11 14 15 12 7 4 6 6 11 14 13 13 12 10 11 12 10 9 12 14 17 14 12 10 11 10 13 15 15 14 11 12 12 11 10 10 10 11
7 7 10 9 9 12 8 5 3 10 7 8 10 11 8 8 13 15 17 14 15 17 15 15 15 15 18 16 16 14 8 8 13 16 14 12 11 11 9 10 9 10 12 13
Wind_Direction
197 203 209 206 223 236 263 283 237 229 248 259 247 252 251 257 256 257 257 254 256 259 262 245 247 248 222 226 223 216 216 212 205 209 206 209 210 206 211 214 209 204 205 203
185 223 213 218 217 227 243 243 246 257 255 258 276 267 259 253 260 259 259 260 259 260 258 259 245 239 234 226 222 220 218 216 213 213 213 212 210 210 215 215 214 207 203 207
206 207 214 209 210 218 231 230 242 255 234 260 278 272 258 250 255 251 251 257 257 256 261 260 256 240 227 232 227 225 219 213 210 216 214 216 225 217 212 217 214 211 208 205
222 219 204 213 215 208 227 226 253 273 291 261 67 286 275 268 238 230 233 249 253 249 250 259 263 264 265 228 233 232 236 229 223 214 214 214 214 214 216 211 214 211 213 212
207 207 209 205 213 213 235 237 228 247 254 286 261 272 266 237 249 252 240 260 248 252 260 268 274 288 281 274 273 239 246 239 229 220 216 217 222 225 225 217 210 213 211 210
213 313 200 214 213 194 151 103 212 267 249 243 249 247 273 244 253 248 230 240 257 250 282 292 298 299 284 289 285 268 258 257 248 236 226 225 227 227 224 220 216 214 212 209
216 215 189 224 193 172 175 168 204 221 213 244 247 216 244 314 309 300 295 273 280 234 291 349 330 320 325 322 329 305 284 271 271 256 238 233 232 233 230 228 223 217 213 210
176 197 196 188 188 184 196 176 192 207 213 246 183 234 244 30 322 267 268 286 313 281 281 14 8 359 1 356 326 320 310 294 279 265 263 238 239 236 241 235 233 227 220 216
195 207 185 189 196 186 197 214 221 282 85 296 221 244 274 264 262 255 265 253 278 57 60 24 27 17 337 300 301 290 286 287 286 276 267 257 245 238 240 243 239 238 231 225
198 208 178 176 30 213 198 189 175 195 205 227 236 247 254 239 178 187 286 174 71 71 31 352 333 323 316 313 316 307 295 297 293 289 277 267 258 251 243 242 243 242 240 230
220 202 163 144 214 176 176 192 209 216 228 229 247 242 231 255 274 284 268 102 101 34 332 329 334 332 334 318 303 309 306 300 292 294 289 275 265 256 251 244 242 242 241 237
208 145 174 161 284 249 218 197 198 210 204 242 263 263 276 290 288 260 149 132 326 312 318 341 334 335 332 328 321 320 310 301 295 289 291 288 277 263 257 249 246 239 239 237
174 160 128 126 335 230 215 225 219 228 245 229 225 242 263 278 316 186 220 235 314 323 330 327 333 331 330 328 325 321 322 313 305 296 288 290 286 271 260 256 250 246 240 237
179 189 216 203 214 154 205 206 215 216 226 230 228 245 264 252 228 179 215 314 305 305 313 319 324 336 327 321 324 322 320 317 315 307 291 288 288 281 273 262 255 249 242 240
168 185 228 238 91 194 206 206 213 219 226 225 236 231 247 262 264 279 309 281 283 297 304 317 326 323 325 323 322 324 320 317 318 315 305 293 289 285 280 270 258 252 245 239
172 256 186 244 173 208 218 227 219 220 226 234 246 251 246 261 280 274 267 280 283 289 297 306 320 321 321 330 325 322 324 322 324 315 309 300 289 284 277 275 264 251 247 239
163 149 163 204 192 193 280 231 223 226 226 228 234 243 258 260 260 259 266 264 282 266 294 289 316 318 318 322 320 318 322 322 319 309 308 304 296 290 283 274 273 260 249 244
151 155 185 137 137 228 243 201 219 227 237 232 240 250 249 259 267 270 262 276 256 262 275 282 316 314 312 315 312 316 322 317 313 310 305 303 296 287 287 276 266 267 254 242
180 169 149 194 214 300 278 203 191 202 241 229 234 249 256 262 277 270 264 259 259 252 237 277 316 298 303 307 311 315 313 310 306 307 308 309 304 292 286 281 274 265 264 249
210 200 211 144 228 241 26 243 184 187 264 208 217 236 246 252 251 264 265 247 220 198 235 297 279 289 278 291 307 304 304 308 305 310 309 307 303 289 283 277 272 258 240 239
169 166 206 194 232 264 256 130 145 175 247 327 215 231 240 239 237 258 63 143 194 261 286 267 268 274 276 285 280 287 289 289 296 303 304 305 303 292 284 279 273 258 235 234
167 181 196 199 227 250 148 157 182 229 349 335 236 231 235 247 263 251 223 239 255 253 256 257 260 260 257 260 269 283 281 280 291 300 300 300 297 295 289 273 267 240 225 218
208 204 179 196 218 150 180 205 225 5 302 246 253 281 288 280 263 249 251 251 254 287 269 239 254 267 256 264 265 278 282 284 286 290 294 293 293 291 285 264 258 234 220 223
222 215 220 154 218 222 209 238 255 243 238 258 278 290 294 285 289 289 283 279 273 258 260 244 243 257 267 263 254 257 286 283 279 283 291 295 289 291 277 253 240 235 217 211
183 166 192 250 265 288 232 231 246 263 242 229 264 268 288 299 296 290 285 284 282 280 286 283 277 273 273 278 267 260 265 279 283 287 288 286 280 277 274 252 240 229 228 210
182 170 200 229 198 223 270 48 285 251 296 4 354 332 325 309 306 308 298 299 299 295 294 290 283 277 280 279 279 278 264 259 277 287 290 287 286 278 263 255 250 242 240 229